Regional Weather Roundup
Issued by NWS Northern Indiana

Home | Current Version | Previous Version | Graphics & Text | Print | Product List | Glossary On
Versions: 1 2 3 4 5 6 7 8 9 10 11 12 13 14 15 16 17 18 19 20 21 22 23 24 25 26 27 28 29 30 31 32 33 34 35 36 37 38 39 40 41 42 43 44 45 46 47 48 49 50
700
ASUS43 KIWX 271600
RWRIWX

KIWX WEATHER ROUNDUP
NATIONAL WEATHER SERVICE NORTHERN INDIANA
1200 PM EDT TUE JUN 27 2017

NOTE: "FAIR" INDICATES FEW OR NO CLOUDS BELOW 12,000 FEET WITH NO
SIGNIFICANT WEATHER AND/OR OBSTRUCTIONS TO VISIBILITY.

* THESE STATIONS ARE NOT UNDER NWS QUALITY CONTROL. THEY ALSO MAY NOT
  REPORT WEATHER SUCH AS PRECIPITATION OR FOG.

INZ001>027-271700-
NORTHERN INDIANA

CITY           SKY/WX    TMP DP  RH WIND       PRES   REMARKS
GARY*          MOSUNNY   68  43  40 W12G23    30.15S
MICHIGAN CITY* SUNNY     68  46  45 W13       30.15S
KNOX*          SUNNY     68  37  32 W12       30.14F
SOUTH BEND     MOSUNNY   68  47  46 W14       30.13F
ELKHART*       MOSUNNY   66  46  48 W9        30.13F
GOSHEN         MOSUNNY   67  46  47 W9        30.13F
MONTICELLO*    SUNNY     67  46  47 W6        30.16S
FORT WAYNE     MOSUNNY   67  48  50 W9        30.16S
PERU/GRISSOM   SUNNY     66  49  55 W7        30.15F

$$
INZ028>050-271700-
CENTRAL INDIANA

CITY           SKY/WX    TMP DP  RH WIND       PRES   REMARKS
LAFAYETTE      SUNNY     68  48  48 NW7       30.16F
KOKOMO*        SUNNY     67  48  50 NW3       30.17S
MUNCIE*        SUNNY     67  48  50 NW6       30.16S
INDIANAPOLIS   MOSUNNY   68  49  50 VRB6      30.17S

$$
MIZ043>046-050>051-056>058-064>065-071>073-077>080-271700-
SOUTHWEST LOWER MICHIGAN

CITY           SKY/WX    TMP DP  RH WIND       PRES   REMARKS
BATTLE CREEK   PTSUNNY   66  47  50 W13       30.12S
BENTON HARBOR  SUNNY     69  48  47 W17G23    30.13S
COLDWATER*     MOSUNNY   67  43  41 NW5       30.12S
HILLSDALE*     PTSUNNY   64  45  48 W10G18    30.12R
HOLLAND        SUNNY     68  49  50 W10G17    30.11S
GRAND RAPIDS   PTSUNNY   69  51  52 W16       30.09S
KALAMAZOO      MOSUNNY   69  44  40 NW9G21    30.12F
STURGIS*       MOSUNNY   66  47  50 W8        30.12F
THREE RIVERS*  FAIR      66  47  50 W7        30.12F

$$
OHZ001>008-015>018-024>025-271700-
NORTHWEST OHIO

CITY           SKY/WX    TMP DP  RH WIND       PRES   REMARKS
DEFIANCE       SUNNY     64  43  46 VRB5      30.13F
FINDLAY        SUNNY     66  45  46 NW13      30.12S
TOLEDO EXPRESS MOSUNNY   67  42  40 VRB7      30.11S
TOLEDO METCALF SUNNY     66  44  45 W8        30.11F
LIMA           MOSUNNY   64  46  52 W9        30.14R

$$
AND FOR LAKE MICHIGAN COASTAL AND OPEN LAKE BUOY OBSERVATIONS

STATION/POSITION TEMP    WIND        PRES    VSBY  WAVE
                 AIR SEA DIR/SP/G                  HT/PER
                 (F)     (DEG/KT/KT) (MB)    (MI)  (FT/S)
CALUMET HARBOR    67     290/  8/ 11 1020.0S
MICHIGAN CITY     63     240/ 11/ 12   N/A
BURNS HARBOR      65     290/  8/ 10 1021.0F
SOUTH LAKE BUOY   60 61  300/ 10/ 12 1019.8          2/ 3
4 MI NW BRIDGMAN  63 69  270/ 12/ 16 1020.6S         2/ 5
MICHIGAN CITY     63 65  270/ 10/ 12   N/A           2/ 5

$$
&&




USA.gov is the U.S. government's official web portal to all federal, state and local government web resources and services.